Regional Weather Roundup
Issued by NWS Nashville, TN

Home | Current Version | Previous Version | Text Only | Print | Product List | Glossary On
Versions: 1 2 3 4 5 6 7 8 9 10 11 12 13 14 15 16 17 18 19 20 21 22 23 24 25 26 27 28 29 30 31 32 33 34 35 36 37 38 39 40 41 42 43 44 45 46 47 48 49 50
000
ASUS44 KOHX 311015
RWROHX
MIDDLE TENNESSEE HOURLY WEATHER ROUNDUP
NATIONAL WEATHER SERVICE NASHVILLE TN
400 AM CST SAT JAN 31 2015

NOTE: "FAIR" INDICATES FEW OR NO CLOUDS BELOW 12,000 FEET WITH
NO SIGNIFICANT WEATHER AND/OR OBSTRUCTIONS TO VISIBILITY.

* THESE REPORTS ARE NOT UNDER NWS QUALITY CONTROL AND MAY NOT
  REPORT WEATHER SUCH AS PRECIPITATION AND FOG.


TNZ005>011-023>034-057-059-062>066-078-080-311100
...NORTHERN MIDDLE TENNESSEE...

CITY           SKY/WX    TMP DP  RH WIND       PRES   REMARKS
CLARKSVILLE    CLEAR     25  21  85 CALM      30.39F
CROSSVILLE     CLEAR     22  17  81 NE3       30.32F
GALLATIN         N/A     21  20  96 CALM      30.39S
DICKSON        CLEAR     25  18  74 CALM      30.36F
LEBANON        CLEAR     20  18  92 CALM      30.36F
LIVINGSTON     CLEAR     28  16  61 CALM      30.34F
NASHVILLE      PTCLDY    25  21  85 CALM      30.38F
WEST NASHVILLE   N/A     23  23 100 CALM      30.39F
PORTLAND       CLEAR     19  18  93 CALM      30.36S
SMYRNA         CLEAR     20  18  92 CALM      30.40F
SPARTA         CLEAR     16  14  93 CALM      30.35S
$$
TNZ056-058-060-061-075>077-079-093>097-311100
...SOUTHERN MIDDLE TENNESSEE...

CITY           SKY/WX    TMP DP  RH WIND       PRES   REMARKS
COLUMBIA       CLEAR    N/A N/A N/A CALM      30.36R
LEWISBURG      CLEAR     19  16  88 CALM      30.36F
MCMINNVILLE    CLEAR     21  18  86 S12       30.35F SQUALL  WCI   9
MURFREESBORO   CLEAR     23  20  89 CALM      30.38F
SHELBYVILLE    CLEAR     19  19 100 CALM      30.37F
TULLAHOMA      CLEAR     21  16  79 CALM      30.34F
WINCHESTER     CLEAR     18  16  93 CALM      30.34F
$$


...KEY TO REMARKS...
VSB - VISIBILITY IN MILES
WCI - WIND CHILL INDEX
HX  - HEAT INDEX



USA.gov is the U.S. government's official web portal to all federal, state and local government web resources and services.